Flag for Honduras Weather past 2 weeks in Choloma, Honduras

Now
72 °F

Fog.


Feels Like: 65 °F
Forecast: 68 / 89 °F
Wind: No wind

Location: La Mesa San Pedro Sula

Current Time: Feb 27, 2015 at 7:43:55 AM

Latest Report: Feb 27, 2015 at 7:00 AM


Visibility: N/A

Pressure: 29.95 "Hg

Humidity: 100%

Dew point: 72 °F

Location of CholomaLocation

Historic Weather in Choloma — Graph

°F

Choloma temperature yesterday

Maximum temperature yesterday: 93 °F (at 1:00 PM)
Minimum temperature yesterday: 73 °F (at 12:00 AM)
Average temperature yesterday: 81 °F

Past Weeks' High & Low Weather Summary

 TemperatureHumidityPressure
High93 °F (Feb 17, 2:00 PM)100% (Feb 12, 6:00 AM)30.21 "Hg (Feb 12, 6:00 AM)
Low63 °F (Feb 16, 3:00 AM)44% (Feb 26, 2:00 PM)29.74 "Hg (Feb 26, 3:00 PM)
Average75 °F86%30.01 "Hg
* Reported Feb 12 6:00 AM — Feb 27 6:00 AM, Choloma, Weather by CustomWeather, © 2015

Note: Actual official high and low records may vary slightly from our data, if they occured in-between our weather recording intervals... More about our weather records

Advertising

Choloma weather history for previous 24 hours

 ConditionsComfort  
Time TempWeatherWind HumidityBarometerVisibility
6:00 AM
Fri, Feb 27
73 °FPassing clouds.No wind94%29.92 "HgN/A
5:00 AM73 °FPassing clouds.No wind94%29.89 "HgN/A
4:00 AM73 °FPassing clouds.No wind100%29.86 "HgN/A
3:00 AM75 °FPassing clouds.No wind94%29.86 "HgN/A
2:00 AM75 °FPassing clouds.5 mph100%29.86 "HgN/A
1:00 AM75 °FPassing clouds.5 mph100%29.89 "HgN/A
12:00 AM75 °FPassing clouds.5 mph100%29.92 "HgN/A
11:00 PM
Thu, Feb 26
75 °FPassing clouds.5 mph100%29.92 "HgN/A
10:00 PM77 °FPassing clouds.5 mph94%29.89 "HgN/A
9:00 PM79 °FPassing clouds.7 mph89%29.89 "HgN/A
7:00 PM81 °FPassing clouds.5 mph84%29.83 "HgN/A
6:00 PM82 °FPassing clouds.13 mph79%29.80 "HgN/A
5:00 PM86 °FPassing clouds.16 mph75%29.77 "HgN/A
4:00 PM90 °FPassing clouds.15 mph67%29.74 "HgN/A
3:00 PM93 °FPassing clouds.7 mph47%29.74 "HgN/A
2:00 PM93 °FPassing clouds.3 mph44%29.77 "HgN/A
1:00 PM93 °FPassing clouds.3 mph47%29.80 "HgN/A
12:00 PM91 °FPassing clouds.8 mph49%29.83 "HgN/A
11:00 AM90 °FPassing clouds.13 mph55%29.83 "HgN/A
10:00 AM86 °FPassing clouds.13 mph62%29.86 "HgN/A
9:00 AM84 °FPassing clouds.10 mph66%29.86 "HgN/A
8:00 AM79 °FPassing clouds.3 mph84%29.86 "HgN/A
7:00 AM73 °FPassing clouds.3 mph94%29.83 "HgN/A
Weather by CustomWeather, © 2015

See weather overviewHow to use our weather pages